Regional Weather Roundup
Issued by NWS

Home | Current Version | Previous Version | Text Only | Print | Product List | Glossary Off
Versions: 1 2 3 4 5 6 7 8 9 10 11 12 13 14 15 16 17 18 19 20 21 22 23 24 25 26 27 28 29 30 31 32 33 34 35 36 37 38 39 40 41 42 43 44 45 46 47 48 49 50

000
ASUS43 KDMX 241606
RWRIA

WEATHER ROUNDUP FOR IOWA
NATIONAL WEATHER SERVICE DES MOINES IA
1100 AM CDT SUN SEP 24 2017

NOTE: "FAIR" INDICATES FEW OR NO CLOUDS BELOW 12,000 FEET WITH NO
SIGNIFICANT WEATHER AND/OR OBSTRUCTIONS TO VISIBILITY.

* - THESE STATIONS ARE NOT NWS STATIONS...THUS NOT UNDER NWS
QUALITY CONTROL.  THEY ALSO DO NOT REPORT WEATHER SUCH
AS PRECIPITATION OR FOG.

IAZ001>003-012>014-020>022-031>034-043>046-241700-
   NORTHWEST IOWA

CITY           SKY/WX    TMP DP  RH WIND       PRES   REMARKS
CARROLL *      SUNNY     84  64  51 S14G21    29.94F HX  86
CHEROKEE *     MOSUNNY   81  67  63 S12       29.91F HX  83
DENISON *      SUNNY     82  66  57 S10G16    29.95S HX  85
LE MARS *      SUNNY     82  66  57 S16G24    29.89S HX  85
ORANGE CITY *  SUNNY     81  66  61 S16G22    29.90F HX  83
SHELDON *      MOSUNNY   82  64  54 S13G23    29.89F HX  84
SIOUX CITY     SUNNY     79  68  69 S13       29.89F HX  81
SPENCER        MOSUNNY   83  65  54 S16G24    29.93S HX  85
STORM LAKE *   SUNNY     82  64  54 S15       29.94S HX  84
$$

IAZ055>058-069>071-079>083-090>094-241700-
   SOUTHWEST IOWA

CITY           SKY/WX    TMP DP  RH WIND       PRES   REMARKS
ATLANTIC *     SUNNY     82  66  57 S10       29.94F HX  85
AUDUBON *      SUNNY     82  68  61 S9G16     29.97S HX  85
CLARINDA *     SUNNY     82  66  57 S14G21    29.98S HX  85
COUNCIL BLFS * MOSUNNY   81  70  69 S13       29.93S HX  84
CRESTON *      SUNNY     82  66  57 S13       30.00S HX  85
HARLAN  *      MOSUNNY   82  66  57 S14       29.97F HX  85
LAMONI         SUNNY     82  67  60 S10       30.00S HX  84
RED OAK *      MOSUNNY   84  66  54 S13       29.95S HX  86
SHENANDOAH *   MOSUNNY   82  66  57 S10       29.95S HX  85
$$

IAZ047>049-059>061-072>074-084-241700-
   CENTRAL IOWA

CITY           SKY/WX    TMP DP  RH WIND       PRES   REMARKS
AMES           SUNNY     83  68  60 S9        29.97F HX  86
ANKENY *       SUNNY     82  66  57 S8        29.98F HX  85
BOONE *        SUNNY     84  64  51 S8G14     29.97S HX  86
CHARITON *     SUNNY     81  66  61 S13       30.00S HX  83
DES MOINES     MOSUNNY   84  66  54 S9        29.97S HX  86
GRINNELL*      SUNNY     80  65  59 S9        30.02F HX  81
KNOXVILLE *    SUNNY     84  66  54 S10       29.98F HX  86
MARSHALLTOWN   SUNNY     82  66  58 S10       29.99S HX  84
NEWTON *       SUNNY     82  64  54 S8G15     29.99F HX  84
PELLA *        SUNNY     84  64  50 S6        30.01S HX  85
PERRY *          N/A     86  64  47 S12       29.96F HX  88
$$

IAZ004>006-015-016-023>025-035-036-241700-
   NORTH CENTRAL IOWA

CITY           SKY/WX    TMP DP  RH WIND       PRES   REMARKS
ALGONA *       SUNNY     82  66  57 S13G18    29.96S HX  85
CLARION *      SUNNY     84  64  51 S14       29.97F HX  86
ESTHERVILLE    SUNNY     79  67  66 S16       29.93F HX  81
FORT DODGE *   SUNNY     84  66  54 S10       29.96F HX  86
MASON CITY     SUNNY     82  63  52 S10       30.00F HX  83
FOREST CITY *    N/A     81  63  54 S13       29.98S HX  82
WEBSTER CITY * SUNNY     84  64  51 S12       29.95F HX  86
IOWA FALLS *     N/A     81  65  57 S10       30.00F HX  83
$$

IAZ007>011-017>019-026>030-037>042-050>054-066-241700-
   NORTHEAST IOWA

CITY           SKY/WX    TMP DP  RH WIND       PRES   REMARKS
CEDAR RAPIDS   SUNNY     82  64  54 S8        30.02F HX  83
CHARLES CITY * SUNNY     82  64  54 S8        30.01S HX  84
CLINTON *      SUNNY    N/A N/A N/A SE9       30.06S
DECORAH *      SUNNY     82  63  51 S8        30.02S HX  83
DUBUQUE        SUNNY     80  64  58 S10       30.07R HX  82
MONTICELLO *   SUNNY     84  64  51 SE10      30.03F HX  86
OELWEIN *      SUNNY     84  64  51 S14       30.02F HX  86
WATERLOO       SUNNY     82  62  50 SE10      29.98F HX  83
$$

IAZ064-065-067-068-078-241700-
   EAST CENTRAL IOWA

CITY           SKY/WX    TMP DP  RH WIND       PRES   REMARKS
DAVENPORT      SUNNY     82  64  54 SE8       30.07S HX  83
IOWA CITY      SUNNY     83  65  54 SE9       30.04F HX  85
MUSCATINE *    SUNNY     81  64  57 SE8       30.04F HX  82
QUAD CITIES    SUNNY     83  64  52 S8        30.05S HX  84
$$

IAZ062-063-075>077-085>089-095>099-241700-
   SOUTHEAST IOWA

CITY           SKY/WX    TMP DP  RH WIND       PRES   REMARKS
BURLINGTON     SUNNY     81  67  62 S7        30.05S HX  83
FAIRFIELD *    SUNNY     81  64  57 S7        30.02F HX  82
FORT MADISON * SUNNY     84  66  54 S7        30.05S HX  86
KEOKUK *       SUNNY     84  66  54 VRB8      30.04S HX  86
OSKALOOSA *      N/A     84  65  54 SW7       30.02S HX  85
OTTUMWA        SUNNY     82  67  60 S10       30.01F HX  84
WASHINGTON *   SUNNY     82  66  57 S10       30.04S HX  85
$$

ABBREVIATIONS USED IN REMARKS
   TC - TEMPERATURES IN CELSIUS
  WCI - WIND CHILL INDEX
   HX - HEAT INDEX
  VSB - VISIBILITY
$$




USA.gov is the U.S. government's official web portal to all federal, state and local government web resources and services.